Regional Weather Roundup
Issued by NWS Bismarck, ND

Home | Current Version | Previous Version | Text Only | Print | Product List | Glossary On
Versions: 1 2 3 4 5 6 7 8 9 10 11 12 13 14 15 16 17 18 19 20 21 22 23 24 25 26 27 28 29 30 31 32 33 34 35 36 37 38 39 40 41 42 43 44 45 46 47 48 49 50
000
ASUS43 KBIS 062020
RWRBIS

NWR BROADCAST TEXT
NATIONAL WEATHER SERVICE BISMARCK ND
200 PM CST FRI MAR 06 2015

NOTE: "FAIR" INDICATES FEW OR NO CLOUDS BELOW 12,000 FEET WITH NO
SIGNIFICANT WEATHER AND/OR OBSTRUCTIONS TO VISIBILITY.


CITY           SKY/WX    TMP DP  RH WIND       PRES   REMARKS
WILLISTON      PTSUNNY   45  27  49 SW14      29.96F
MINOT          CLOUDY    35  20  54 S14G25    29.95F
MINOT AFB      PTSUNNY   34  25  68 SW15      29.93F
BISMARCK       CLOUDY    41  17  38 SW9       30.06F
DICKINSON      PTSUNNY   53  20  27 W15       29.97F
GARRISON         N/A     38  22  52 SW13      29.99F
HETTINGER ARPT MOSUNNY   55  16  21 W23G30    30.02F
JAMESTOWN      SUNNY     36  19  50 W10       30.04F
BEACH          MOCLDY    52  19  28 W28G35    30.01F
CARRINGTON     FAIR      36  23  60 MISG      30.02F
CROSBY         FAIR      39  28  65 W18       29.92F
HARVEY         FAIR      32  23  69 SW15      30.01F
HAZEN            N/A     41  21  45 SW14      30.01F
LINTON         FAIR      39  18  41 W8        30.06F
MANDAN         FAIR      39  18  41 SW13      30.05F
OAKES            N/A     34  23  64 W10       30.08F
RUGBY          FAIR      32  23  69 SW13      29.98F
TIOGA          FAIR      37  27  65 SW13      29.95F
WATFORD CITY   FAIR      45  25  45 W12       29.96F
$$

CITY           SKY/WX    TMP DP  RH WIND       PRES   REMARKS
GRAND FORKS    PTSUNNY   37  16  42 W9        30.03F
GRAND FORKS AF MOSUNNY   38  15  38 W8        30.02F
DEVILS LAKE    MOSUNNY   34  21  60 SW13      29.99F
FARGO          MOSUNNY   37  19  48 W9        30.06F
CANDO          CLOUDY    32  23  69 SW13      29.98F
CAVALIER       MOCLDY    34  19  55 SW9       29.99F
GWINNER        CLEAR     37  23  56 W12       30.09F
ROLLA          FAIR      28  18  64 SW18      29.94F WCI  16
WALHALLA         N/A     32  19  59 SW13      29.98F
$$

CITY           SKY/WX    TMP DP  RH WIND       PRES   REMARKS
ABERDEEN       MOSUNNY   40  21  46 NW7       30.11F
MOBRIDGE       PTSUNNY   44  19  36 S6        30.05F
BUFFALO          N/A     54  18  24 NW25G38   29.98F
RAPID CITY     MOSUNNY   57  18  21 N15       30.10F
GLASGOW        CLOUDY    53  23  31 NW14      30.02F
SIDNEY         MOSUNNY   52  25  35 W18G26    30.01F
WOLF POINT     PTSUNNY   54  26  34 W15       30.02S
GLENDIVE       CLOUDY    55  23  28 NW20G26   30.03F
MILES CITY     CLOUDY    57  21  24 MISG      30.07F
BAKER          MOSUNNY   54  21  27 W26G35    30.04F
$$

CITY           SKY/WX    TMP DP  RH WIND       PRES   REMARKS
BILLINGS       MOSUNNY   59  17  19 W26G38    30.15F
GREAT FALLS    MOSUNNY   56  19  23 W23G32    30.15F
REGINA         PTSUNNY   37  32  81 W20       29.86S
ESTEVAN        MOSUNNY   37  28  70 SW14      29.90F
$$




USA.gov is the U.S. government's official web portal to all federal, state and local government web resources and services.